Starlink 32752

operational
NORAD ID: 62567 Int'l Des: 2025-006 Owner: SPXS Country: US Constellation: starlink
LEOCIRCULAR

关于 Starlink 32752

正在加载描述...

实时位置

正在加载3D地球...

即将过境

高度历史

Altitude vs Time

uPlot chart will show altitude changes over time

两行轨道根数

1 62567U 25006P 25350.53108496 .00023989 00000-0 87816-3 0 9994
2 62567 43.0031 42.2998 0001179 273.8752 86.1965 15.27590001 52142
Epoch: Dec 16, 2025 • Age: 16 hours

当前状态

高度 483.0 km
速度 7.63 km/s
星下点 22.27°N, 30.33°E
发射日期 Jan 10, 2025
运行时间 0.9 years
类型 internet

技术详情

分类 Payload
质量 730.00 kg
干质量 700.00 kg
总质量 730.00 kg
长度 0.30 m
直径 4.10 m
跨度 29.00 m
形状 Box + pan
制造商 SPXS
平台类型 Starlink V2M
阶段状态 In Orbit
所有者/国家 SPXS/US

大型星座

Loading constellations...